FW3983 Weather Reports


time (UTC)temp
C
wind
direction
speed
KPH
gust
KPH
rain 1hr
cm
rain 24hr
cm
rain mn
cm
humidity
%
barometer
mb
20260505064547 14 190 0.0 0.0 0.00 0.00 0.00 63 1042.7
20260505063051 15 190 0.0 1.6 0.00 0.00 0.00 63 1042.7
20260505061547 14 190 0.0 3.2 0.00 0.00 0.00 64 1042.7
20260505060058 14 355 0.0 0.0 0.00 0.00 0.00 62 1042.7
20260505054546 14 355 0.0 0.0 0.00 0.00 0.00 61 1042.7
20260505053045 15 355 0.0 0.0 0.00 0.00 0.00 59 1042.7
20260505051548 15 355 0.0 0.0 0.00 0.00 0.00 59 1042.7
20260505041553 17 355 0.0 1.6 0.00 0.00 0.00 53 1042.7
20260505040047 17 355 0.0 3.2 0.00 0.00 0.00 51 1042.7
20260505034542 18 355 0.0 1.6 0.00 0.00 0.00 50 1042.7
20260505033041 18 355 0.0 0.0 0.00 0.00 0.00 48 1042.7
20260505031540 19 355 0.0 0.0 0.00 0.00 0.00 45 1042.7
20260505030053 20 355 0.0 0.0 0.00 0.00 0.00 43 1042.7
20260505024543 20 355 0.0 0.0 0.00 0.00 0.00 42 1042.7
20260505023038 20 355 0.0 0.0 0.00 0.00 0.00 43 1042.7
20260505021537 20 355 0.0 0.0 0.00 0.00 0.00 45 1042.7
20260505020040 21 355 0.0 0.0 0.00 0.00 0.00 46 1042.7
20260505014556 21 355 0.0 1.6 0.00 0.00 0.00 44 1042.7
20260505013039 21 355 0.0 1.6 0.00 0.00 0.00 45 1042.7
20260505011539 22 355 0.0 3.2 0.00 0.00 0.00 39 1042.7
20260505010031 23 346 0.0 3.2 0.00 0.00 0.00 39 1042.7
20260505004543 24 346 0.0 3.2 0.00 0.00 0.00 38 1042.7
20260505003049 25 350 0.0 4.8 0.00 0.00 0.00 35 1042.7
20260505001530 26 292 0.0 4.8 0.00 0.00 0.00 32 1042.7
20260505000034 26 213 0.0 4.8 0.00 0.00 0.00 30 1042.7
20260504234528 26 232 0.0 1.6 0.00 0.00 0.00 29 1042.7
20260504233029 26 235 0.0 8.0 0.00 0.00 0.00 28 1042.7
20260504231527 26 216 3.2 9.7 0.00 0.00 0.00 28 1042.7
20260504230025 26 207 1.6 9.7 0.00 0.00 0.00 29 1042.7
20260504224522 26 211 3.2 11.3 0.00 0.00 0.00 31 1042.7
20260504223020 26 175 1.6 8.0 0.00 0.00 0.00 31 1042.7
20260504221522 26 193 0.0 9.7 0.00 0.00 0.00 35 1042.7
20260504220018 25 256 1.6 6.4 0.00 0.00 0.00 34 1042.7
20260504214519 25 188 1.6 9.7 0.00 0.00 0.00 34 1042.7
20260504213023 25 190 3.2 8.0 0.00 0.00 0.00 33 1042.7
20260504211529 25 227 0.0 8.0 0.00 0.00 0.00 34 1042.7
20260504210016 25 266 0.0 8.0 0.00 0.00 0.00 32 1042.7
20260504204518 25 245 3.2 12.9 0.00 0.00 0.00 28 1042.7
20260504203012 25 211 3.2 11.3 0.00 0.00 0.00 26 1042.7
20260504201508 25 212 0.0 9.7 0.00 0.00 0.00 26 1042.7
20260504200007 24 250 1.6 6.4 0.00 0.00 0.00 31 1042.7
20260504194605 23 355 0.0 4.8 0.00 0.00 0.00 33 1042.7
20260504194503 23 355 0.0 4.8 0.00 0.00 0.00 34 1042.7
20260504193109 23 194 1.6 3.2 0.00 0.00 0.00 33 1042.7
20260504191611 22 329 0.0 4.8 0.00 0.00 0.00 36 1042.7
20260504190108 22 5 1.6 6.4 0.00 0.00 0.00 34 1042.7
20260504184556 22 115 0.0 6.4 0.00 0.00 0.00 35 1042.7
20260504183055 23 261 1.6 6.4 0.00 0.00 0.00 32 1042.7
20260504181600 22 315 0.0 4.8 0.00 0.00 0.00 33 1042.7
20260504180053 22 288 0.0 0.0 0.00 0.00 0.00 34 1042.7
20260504174549 22 255 0.0 0.0 0.00 0.00 0.00 32 1042.7
20260504173051 21 271 0.0 0.0 0.00 0.00 0.00 36 1042.7
20260504171543 20 262 0.0 0.0 0.00 0.00 0.00 40 1042.7
20260504081541 13 335 0.0 0.0 0.00 0.00 0.00 54 1042.7